FW9480 Weather Reports


time (UTC)temp
C
wind
direction
speed
KPH
gust
KPH
rain 1hr
cm
rain 24hr
cm
rain mn
cm
humidity
%
barometer
mb
20260506044545 17 33 0.0 6.4 0.00 0.00 0.00 75 1005.8
20260506043043 16 0 0.0 0.0 0.00 0.00 0.00 78 1005.7
20260506041556 16 0 0.0 0.0 0.00 0.00 0.00 79 1005.4
20260506040040 16 0 0.0 0.0 0.00 0.00 0.00 78 1005.2
20260506034542 17 0 0.0 0.0 0.00 0.00 0.00 77 1004.9
20260506033045 17 0 0.0 0.0 0.00 0.00 0.00 76 1004.7
20260506031546 17 0 0.0 0.0 0.00 0.00 0.00 77 1004.8
20260506030044 17 0 0.0 0.0 0.00 0.00 0.00 75 1004.7
20260506024604 18 0 0.0 0.0 0.00 0.00 0.00 73 1004.7
20260506023040 18 0 0.0 0.0 0.00 0.00 0.00 72 1004.7
20260506021537 18 0 0.0 0.0 0.00 0.00 0.00 69 1004.8
20260506020037 18 0 0.0 0.0 0.00 0.00 0.00 68 1004.9
20260506014550 19 0 0.0 0.0 0.00 0.00 0.00 67 1004.9
20260506013043 19 0 0.0 0.0 0.00 0.00 0.00 65 1004.7
20260506011543 20 0 0.0 0.0 0.00 0.00 0.00 65 1004.5
20260506010040 20 0 1.6 6.4 0.00 0.00 0.00 64 1004.4
20260506004542 20 0 0.0 1.6 0.00 0.00 0.00 60 1004.3
20260506003044 20 0 0.0 3.2 0.00 0.00 0.00 58 1004.0
20260506001605 21 0 0.0 6.4 0.00 0.00 0.00 59 1003.8
20260506000048 21 36 1.6 4.8 0.00 0.00 0.00 56 1003.7
20260505234549 21 0 1.6 8.0 0.00 0.00 0.00 54 1003.5
20260505233046 22 106 3.2 8.0 0.00 0.00 0.00 51 1003.5
20260505231548 23 33 0.0 4.8 0.00 0.00 0.00 45 1003.2
20260505230044 25 0 0.0 6.4 0.00 0.00 0.00 41 1003.0
20260505224547 25 0 0.0 6.4 0.00 0.00 0.00 33 1002.7
20260505223051 25 147 3.2 6.4 0.00 0.00 0.00 33 1002.7
20260505221549 25 171 3.2 9.7 0.00 0.00 0.00 35 1002.3
20260505220043 25 215 6.4 14.5 0.00 0.00 0.00 34 1002.1
20260505214559 26 180 6.4 19.3 0.00 0.00 0.00 34 1001.8